Location: Tamazert
(32.6352°N, 5.2072°W)
Time: 21:57:33
(UTC+00:00)

Cosmos 2333 Rocket - Pass Details

Date: 22 May 2022
Orbit: 839 x 863 km, 70.8° (Epoch: 24 June)

Event Time Altitude Azimuth Distance (km) Brightness Sun altitude
Exits shadow 01:08:55 28° 330° (NNW) 1,524 3.8 -35.6°
Drops below altitude 10° 01:12:19 10° 1° (N) 2,463 5.3 -35.4°
Sets 01:15:01 0° 11° (N) 3,404 6.4 -35.3°
